Wind_Speed
34 35 38 37 33 31 34 33 35 31 30 29 28 28 28 29 29 29 31 30 31 32 32 33 33 34 35 34 32 30 31 31 30 30 29 29 28 26 25 23 22 20 19
31 30 31 30 30 29 29 28 31 30 28 27 26 26 26 27 28 28 29 30 30 31 33 34 34 35 35 36 36 35 33 33 33 32 31 31 31 30 29 28 26 25 24
30 29 29 29 26 27 26 25 27 28 26 25 24 25 26 26 27 27 28 27 27 28 29 30 32 33 34 36 37 37 37 36 36 36 35 34 33 33 32 32 31 31 29
27 27 27 26 25 24 23 21 23 23 24 23 23 23 24 24 24 23 22 23 24 25 28 30 32 33 34 35 35 37 38 40 42 40 38 37 37 36 35 35 35 32 34
24 24 26 25 24 21 19 17 19 20 23 21 21 22 21 21 21 21 20 22 24 24 26 29 31 33 34 34 35 36 37 38 40 42 44 44 42 40 39 39 35 44 37
24 23 22 23 22 20 16 14 15 17 19 19 19 19 18 19 20 19 21 21 20 21 21 22 24 27 29 29 31 34 36 37 39 40 41 44 47 45 44 44 41 43 35
24 22 20 19 20 18 16 13 13 15 15 16 18 18 18 19 18 19 20 21 23 21 20 19 18 19 20 23 26 29 32 35 37 38 40 41 44 48 49 46 45 44 38
23 22 20 18 17 19 17 13 13 14 14 13 15 17 18 19 19 19 19 21 21 21 19 17 16 15 16 17 18 22 25 28 32 36 38 41 43 44 45 49 51 52 47
21 21 20 20 16 13 14 15 15 14 14 14 15 17 18 20 20 19 20 21 21 19 18 17 16 17 16 17 17 19 19 20 23 26 30 34 39 42 44 46 46 48 51
21 19 20 19 17 14 12 12 12 14 14 15 16 18 19 20 21 22 21 21 21 21 20 19 19 19 19 19 19 20 21 21 21 21 24 27 30 34 37 40 42 45 45
20 20 19 19 16 14 14 13 13 12 13 15 16 18 20 21 21 21 22 22 21 22 23 23 22 23 23 22 22 23 23 23 24 23 22 24 25 27 30 33 36 38 40
20 20 20 19 18 17 15 14 14 14 15 16 17 19 20 21 23 23 23 22 22 23 25 26 27 27 27 26 25 25 25 25 25 25 24 23 24 23 23 25 29 33 35
19 19 19 19 18 18 17 17 16 15 16 17 19 21 22 23 24 24 25 26 25 25 25 26 28 31 31 30 30 28 28 27 27 26 25 24 23 23 23 23 24 26 29
20 18 17 17 18 17 16 17 18 18 17 18 19 21 23 24 26 27 29 30 30 28 26 26 28 30 32 33 33 32 32 29 29 27 25 24 25 24 24 24 24 25 26
18 18 18 17 16 17 17 18 18 19 19 20 20 21 23 24 25 27 28 29 31 32 30 27 26 27 28 30 33 33 33 31 29 29 27 26 25 26 26 25 25 25 26
17 17 17 18 18 18 17 18 19 20 20 21 22 23 24 25 26 27 28 28 29 31 31 30 30 30 29 29 30 30 31 30 29 29 28 28 27 27 28 27 26 25 25
19 19 19 18 18 18 18 18 19 20 21 22 23 24 25 26 27 28 29 30 30 31 31 28 32 33 32 31 29 29 29 30 30 29 29 28 28 28 28 28 28 27 26
18 18 18 18 19 19 20 20 20 21 22 23 25 25 25 26 27 28 29 30 30 31 31 28 30 32 34 35 33 31 29 29 29 30 29 27 28 28 29 29 29 30 29
18 18 18 19 20 20 21 22 22 23 23 23 24 24 25 25 26 27 28 29 30 30 30 28 26 29 31 32 33 33 33 30 30 29 29 29 28 28 29 30 31 31 31
21 22 22 22 22 22 23 23 23 24 24 24 24 24 24 24 24 25 26 27 28 29 30 29 27 27 28 29 31 32 31 31 30 30 28 28 29 28 28 30 32 31 31
23 23 23 23 23 23 24 24 24 23 24 24 24 24 24 24 24 25 25 26 27 28 29 30 28 26 24 26 29 30 32 32 31 32 27 27 26 26 27 29 29 30 31
25 25 25 24 24 25 25 25 25 24 25 25 25 26 27 27 28 28 28 28 27 28 28 29 27 26 25 27 29 30 30 30 29 29 28 25 26 25 27 28 28 28 28
27 27 28 27 27 27 27 28 28 28 28 30 31 31 30 31 32 33 33 32 31 30 30 31 31 29 30 31 31 30 29 28 27 26 27 22 24 23 25 25 26 27 28
29 30 30 31 31 32 32 33 34 34 34 33 32 30 29 27 27 28 31 32 32 32 32 35 36 35 36 35 34 33 32 31 28 26 29 25 26 25 24 26 26 26 26
33 33 33 33 33 33 34 35 37 37 35 33 30 28 29 32 33 35 37 35 33 30 31 34 38 39 39 39 38 38 34 34 32 30 30 31 28 27 26 28 29 31 32
35 35 35 36 37 37 37 36 37 38 37 36 33 33 34 36 37 38 40 41 38 36 38 38 38 38 39 41 41 41 40 39 39 37 34 35 32 32 31 31 32 33 36
Wind_Direction
313 311 306 298 291 281 274 270 265 258 255 255 253 253 254 255 255 255 257 259 257 259 261 261 260 260 259 259 256 257 257 257 257 258 259 259 259 260 261 262 262 261 261
316 321 315 300 293 287 274 268 264 258 252 250 253 251 251 253 254 256 257 260 260 260 262 263 263 262 260 259 257 252 253 255 255 255 257 258 257 258 258 257 259 260 259
326 330 320 315 305 290 275 267 260 255 254 249 249 250 252 254 256 257 259 260 261 262 263 263 263 263 263 262 261 257 251 250 253 255 255 255 256 256 254 255 256 257 257
330 330 325 322 313 300 282 268 259 253 252 248 251 251 254 256 257 257 259 262 264 265 266 267 267 266 265 263 261 261 259 254 252 251 253 254 253 254 257 259 259 254 257
329 329 329 326 319 309 296 276 263 253 256 252 251 252 252 254 254 259 260 265 269 271 272 271 269 266 265 264 262 260 259 259 258 255 253 253 254 255 255 256 259 259 250
323 325 331 328 324 318 303 290 274 269 265 260 256 251 250 252 258 257 266 266 271 279 280 281 274 269 265 262 261 260 259 258 258 258 256 253 252 253 254 256 257 265 263
319 322 327 332 327 321 312 302 288 275 266 264 263 255 252 256 254 266 268 268 273 278 281 284 283 280 276 271 268 266 264 262 260 258 257 257 254 252 253 254 257 259 258
318 317 322 329 329 325 317 303 288 279 271 262 260 260 257 254 263 268 272 274 275 277 282 283 281 283 280 275 273 271 268 267 265 262 258 257 257 256 255 254 255 258 259
321 316 317 319 319 318 319 318 304 287 275 264 258 262 262 264 270 273 273 277 278 280 277 279 278 279 280 280 280 279 279 277 274 271 267 262 258 256 256 256 257 256 256
322 319 315 315 313 306 300 302 300 296 288 276 266 266 267 269 273 277 276 278 280 281 280 279 280 281 279 279 282 283 284 283 281 279 277 272 265 259 256 256 257 257 257
317 317 316 316 311 303 301 297 292 282 279 281 277 271 269 269 268 269 273 277 277 277 277 279 280 281 281 283 286 288 291 291 289 287 281 277 272 267 263 260 257 255 255
317 316 316 315 316 310 301 295 290 283 276 270 270 269 270 272 273 271 270 271 271 273 280 284 283 282 283 286 287 288 287 286 286 284 282 280 277 271 267 263 260 258 256
313 316 315 315 314 314 310 304 297 291 284 279 275 274 274 273 273 273 273 273 272 271 270 272 278 282 284 284 284 283 283 283 284 282 281 279 278 276 270 268 266 261 257
307 309 309 309 310 309 305 303 300 297 291 286 283 281 280 279 279 278 277 277 274 273 275 275 274 274 277 280 282 283 284 284 281 280 278 276 275 275 276 274 270 268 266
301 300 302 302 299 299 300 300 296 292 289 286 283 282 282 281 280 278 277 277 277 275 274 275 274 272 271 271 273 275 277 276 275 276 275 274 272 270 269 271 272 271 269
298 295 295 295 297 297 296 294 292 292 291 290 287 284 282 279 279 278 277 277 278 279 277 279 277 275 271 271 271 272 274 275 273 274 273 273 271 269 268 266 268 269 267
304 303 300 296 294 294 296 297 297 296 293 289 285 282 280 278 278 278 279 279 278 277 277 275 276 277 277 275 275 274 274 275 276 273 273 271 270 269 267 264 265 265 265
303 301 300 299 299 298 297 294 293 292 292 292 291 288 284 281 280 279 278 278 278 278 279 277 279 279 280 281 280 279 278 276 275 276 276 273 271 270 269 267 264 263 263
302 300 299 299 299 299 298 297 296 296 295 293 290 288 285 283 281 281 281 281 281 280 281 280 276 277 277 278 279 279 280 281 277 274 274 275 274 270 271 270 268 266 263
293 295 295 295 296 296 295 295 294 294 294 294 294 293 291 290 286 283 280 280 280 281 281 281 278 275 277 277 277 277 276 278 278 277 274 272 272 274 272 270 270 270 266
292 291 292 293 293 294 294 295 294 293 292 290 289 288 288 288 287 285 285 283 282 282 282 283 282 279 276 275 277 277 278 277 276 275 276 274 273 274 274 275 274 271 270
291 291 292 292 292 291 291 292 292 292 291 290 289 289 289 289 287 286 284 282 283 283 282 280 278 278 278 281 282 281 280 278 276 275 275 275 274 271 271 274 276 276 275
288 288 288 289 289 288 288 288 287 286 286 285 285 284 284 286 286 285 282 281 281 280 281 282 279 279 280 283 283 280 279 276 274 272 271 267 272 275 274 274 275 277 280
288 286 285 285 285 287 288 288 288 287 284 282 280 279 284 286 289 291 290 287 284 282 282 280 279 279 280 285 285 277 275 273 270 272 272 271 270 270 274 276 278 279 280
287 288 289 288 286 285 285 286 287 286 285 281 278 277 282 290 293 293 291 287 286 287 284 282 281 280 279 279 279 278 275 272 270 269 271 272 270 270 273 277 281 282 283
288 289 289 288 287 286 287 286 286 284 283 281 279 279 284 289 291 288 285 283 280 280 278 279 281 283 283 280 278 275 273 271 272 270 269 273 273 273 270 271 276 279 280
Height
3103 3099 3094 3090 3087 3086 3086 3087 3088 3089 3091 3092 3094 3095 3096 3098 3100 3101 3102 3103 3104 3104 3105 3106 3107 3107 3108 3109 3110 3112 3113 3113 3114 3115 3116 3117 3118 3118 3119 3119 3120 3120 3121
3097 3093 3088 3083 3079 3078 3078 3079 3080 3083 3084 3085 3087 3089 3090 3092 3093 3094 3095 3096 3097 3098 3098 3098 3099 3099 3100 3101 3102 3104 3105 3106 3107 3108 3110 3111 3112 3113 3114 3114 3115 3115 3116
3092 3086 3082 3078 3074 3072 3071 3071 3073 3076 3078 3079 3081 3083 3085 3085 3087 3088 3089 3090 3090 3090 3091 3091 3091 3091 3092 3092 3093 3095 3097 3098 3099 3101 3103 3104 3105 3106 3107 3108 3109 3110 3110
3088 3083 3078 3074 3071 3068 3067 3066 3068 3070 3073 3074 3076 3077 3079 3080 3081 3082 3083 3084 3084 3084 3084 3083 3083 3083 3083 3085 3086 3086 3088 3090 3091 3093 3095 3096 3098 3099 3101 3102 3102 3103 3104
3085 3080 3075 3072 3069 3065 3064 3064 3064 3066 3069 3070 3071 3072 3073 3075 3076 3077 3078 3078 3078 3078 3077 3076 3075 3075 3075 3076 3077 3078 3079 3080 3082 3084 3086 3088 3090 3091 3093 3094 3096 3096 3089
3082 3077 3072 3069 3066 3064 3062 3061 3061 3063 3065 3065 3066 3067 3068 3069 3071 3072 3072 3072 3072 3071 3071 3069 3068 3067 3067 3068 3068 3069 3070 3071 3072 3074 3076 3078 3080 3082 3084 3086 3087 3088 3084
3078 3074 3069 3066 3064 3062 3061 3060 3059 3060 3062 3062 3062 3063 3064 3065 3066 3067 3067 3067 3067 3066 3066 3064 3063 3062 3061 3061 3061 3061 3061 3062 3063 3065 3066 3067 3069 3071 3074 3076 3077 3080 3083
3075 3071 3067 3063 3061 3060 3059 3058 3058 3058 3058 3059 3059 3060 3061 3062 3062 3062 3062 3062 3061 3061 3060 3059 3059 3058 3057 3056 3056 3055 3055 3055 3055 3055 3056 3057 3059 3061 3063 3065 3068 3069 3071
3071 3068 3064 3061 3058 3057 3057 3056 3056 3056 3055 3055 3056 3056 3057 3057 3057 3057 3057 3057 3057 3056 3056 3055 3055 3054 3053 3052 3051 3051 3050 3049 3048 3048 3047 3048 3048 3050 3052 3054 3057 3059 3062
3069 3065 3062 3058 3056 3053 3052 3053 3053 3053 3053 3052 3053 3053 3053 3054 3053 3053 3053 3052 3052 3052 3052 3051 3050 3050 3049 3048 3047 3046 3045 3044 3043 3042 3041 3040 3040 3041 3041 3043 3045 3048 3050
3065 3062 3059 3056 3053 3051 3049 3049 3048 3048 3048 3049 3049 3049 3049 3049 3049 3049 3049 3048 3047 3047 3046 3045 3045 3044 3044 3043 3042 3041 3040 3039 3038 3037 3036 3034 3033 3033 3034 3034 3035 3037 3039
3061 3059 3057 3053 3051 3049 3047 3045 3045 3044 3043 3043 3043 3044 3044 3043 3043 3043 3043 3043 3042 3042 3040 3039 3038 3038 3037 3037 3036 3036 3035 3034 3032 3031 3029 3028 3027 3026 3026 3026 3027 3028 3029
3057 3055 3053 3051 3048 3046 3045 3043 3042 3041 3040 3039 3039 3038 3038 3037 3036 3035 3035 3035 3035 3036 3035 3034 3032 3030 3029 3029 3028 3028 3028 3027 3027 3025 3023 3021 3021 3020 3020 3019 3020 3020 3021
3053 3050 3048 3046 3045 3043 3041 3039 3038 3037 3036 3034 3034 3033 3032 3030 3030 3029 3028 3027 3027 3028 3028 3027 3025 3024 3023 3021 3020 3020 3020 3020 3019 3018 3016 3014 3014 3013 3013 3013 3013 3013 3014
3048 3046 3044 3042 3039 3038 3036 3035 3034 3032 3031 3029 3028 3027 3025 3024 3023 3022 3021 3020 3018 3019 3020 3019 3018 3016 3015 3015 3014 3013 3012 3011 3010 3009 3008 3007 3006 3005 3005 3006 3006 3006 3006
3043 3041 3039 3037 3035 3033 3032 3030 3028 3027 3026 3025 3024 3022 3020 3018 3016 3015 3014 3013 3012 3010 3010 3010 3009 3007 3006 3005 3004 3004 3003 3003 3002 3000 2999 2999 2998 2997 2997 2997 2998 2998 2999
3040 3037 3036 3033 3031 3029 3027 3025 3023 3022 3020 3018 3017 3016 3014 3012 3010 3007 3006 3005 3004 3002 3002 3004 2999 2997 2997 2996 2995 2994 2994 2993 2992 2992 2990 2990 2989 2989 2989 2988 2989 2990 2991
3035 3032 3030 3029 3027 3025 3023 3020 3018 3016 3014 3012 3010 3009 3007 3005 3003 3001 2999 2997 2995 2995 2995 2996 2993 2991 2988 2986 2986 2985 2983 2983 2983 2982 2981 2981 2981 2980 2980 2980 2980 2981 2982
3031 3028 3026 3024 3021 3019 3017 3015 3013 3011 3009 3006 3004 3001 2999 2997 2996 2994 2992 2990 2987 2986 2985 2986 2987 2984 2982 2980 2978 2976 2976 2975 2974 2973 2972 2971 2971 2971 2971 2971 2970 2972 2973
3025 3023 3021 3019 3016 3014 3012 3010 3008 3006 3003 3000 2998 2996 2993 2991 2989 2987 2985 2983 2980 2978 2976 2975 2977 2976 2974 2973 2971 2969 2969 2967 2966 2965 2965 2963 2962 2962 2961 2960 2961 2963 2964
3019 3017 3014 3012 3010 3008 3006 3004 3002 3000 2998 2995 2992 2989 2987 2985 2983 2980 2979 2977 2974 2972 2969 2968 2967 2967 2967 2965 2963 2961 2960 2959 2959 2957 2957 2955 2955 2954 2953 2951 2951 2952 2953
3011 3009 3008 3006 3003 3001 2999 2997 2995 2994 2991 2989 2986 2984 2981 2979 2975 2973 2971 2969 2967 2965 2963 2960 2959 2958 2959 2957 2956 2954 2952 2951 2950 2948 2948 2948 2946 2945 2944 2944 2942 2942 2943
3005 3002 3000 2999 2996 2993 2991 2989 2987 2985 2984 2981 2979 2976 2974 2970 2968 2965 2962 2961 2959 2957 2955 2953 2951 2951 2948 2947 2946 2945 2944 2943 2942 2941 2940 2942 2939 2939 2937 2935 2935 2935 2934
2996 2994 2992 2989 2988 2985 2983 2981 2979 2976 2973 2971 2969 2967 2965 2962 2959 2956 2953 2952 2950 2948 2946 2943 2941 2942 2940 2939 2937 2936 2935 2935 2935 2934 2931 2932 2931 2931 2930 2928 2927 2926 2927
2986 2984 2982 2980 2978 2976 2972 2969 2968 2966 2964 2962 2959 2958 2956 2954 2951 2948 2945 2943 2941 2940 2937 2934 2931 2930 2930 2929 2927 2926 2926 2925 2925 2926 2925 2924 2924 2923 2922 2919 2918 2918 2916
2976 2974 2972 2970 2967 2965 2962 2959 2956 2954 2952 2951 2949 2947 2945 2943 2941 2938 2934 2931 2930 2929 2925 2924 2922 2920 2919 2917 2917 2916 2915 2914 2914 2914 2916 2914 2915 2914 2914 2912 2911 2909 2908